Location: Namasale
(1.5000°N, 32.6167°E)
Time: 10:17:58
(UTC+00:00)

Courier 1B - Pass Details

Date: 28 April 2021
Orbit: 962 x 1209 km, 28.3° (Epoch: 15 May)

Event Time Altitude Azimuth Distance (km) Brightness Sun altitude
Rises 02:35:23 0° 232° (SW) 4,101 - -17.0°
Reaches altitude 10° 02:38:17 10° 229° (SW) 3,143 - -16.3°
Exits shadow 02:39:45 17° 226° (SW) 2,672 9.3 -15.9°
Maximum altitude 02:46:02 61° 150° (SSE) 1,346 8.3 -14.4°
Drops below altitude 10° 02:53:36 10° 71° (ENE) 3,074 11.6 -12.6°
Sets 02:56:24 0° 68° (ENE) 4,007 12.7 -11.9°
